owner,sensor,date,latitude,longitude,sea_surface_height_above_sea_level,qcFlag 
TCOON,ioos:station:TCOON:068:1,2019-09-01T00:24:00Z,27.2970,-97.4049,4.222,11111222 
TCOON,ioos:station:TCOON:068:1,2019-09-01T01:24:00Z,27.2970,-97.4049,4.218,11111222 
TCOON,ioos:station:TCOON:068:1,2019-09-01T02:24:00Z,27.2970,-97.4049,4.219,11111222 
TCOON,ioos:station:TCOON:068:1,2019-09-01T03:24:00Z,27.2970,-97.4049,4.229,11111222 
TCOON,ioos:station:TCOON:068:1,2019-09-01T04:24:00Z,27.2970,-97.4049,4.233,11111222 
TCOON,ioos:station:TCOON:068:1,2019-09-01T05:24:00Z,27.2970,-97.4049,4.244,11111222 
TCOON,ioos:station:TCOON:068:1,2019-09-01T06:24:00Z,27.2970,-97.4049,4.244,11111222 
TCOON,ioos:station:TCOON:068:1,2019-09-01T07:24:00Z,27.2970,-97.4049,4.25,11111222 
TCOON,ioos:station:TCOON:068:1,2019-09-01T08:24:00Z,27.2970,-97.4049,4.253,11111222 
TCOON,ioos:station:TCOON:068:1,2019-09-01T09:24:00Z,27.2970,-97.4049,4.251,11111222 
TCOON,ioos:station:TCOON:068:1,2019-09-01T10:24:00Z,27.2970,-97.4049,4.25,11111222 
TCOON,ioos:station:TCOON:068:1,2019-09-01T11:24:00Z,27.2970,-97.4049,4.251,11111222 
TCOON,ioos:station:TCOON:068:1,2019-09-01T12:24:00Z,27.2970,-97.4049,4.253,11111222 
TCOON,ioos:station:TCOON:068:1,2019-09-01T13:24:00Z,27.2970,-97.4049,4.25,11111222 
TCOON,ioos:station:TCOON:068:1,2019-09-01T14:24:00Z,27.2970,-97.4049,4.248,11111222 
TCOON,ioos:station:TCOON:068:1,2019-09-01T15:24:00Z,27.2970,-97.4049,4.248,11111222 
TCOON,ioos:station:TCOON:068:1,2019-09-01T16:24:00Z,27.2970,-97.4049,4.247,11111222 
TCOON,ioos:station:TCOON:068:1,2019-09-01T17:24:00Z,27.2970,-97.4049,4.242,11111222 
TCOON,ioos:station:TCOON:068:1,2019-09-01T18:24:00Z,27.2970,-97.4049,4.233,11111222 
TCOON,ioos:station:TCOON:068:1,2019-09-01T19:24:00Z,27.2970,-97.4049,4.22,11111222 
TCOON,ioos:station:TCOON:068:1,2019-09-01T20:24:00Z,27.2970,-97.4049,4.217,11111222 
TCOON,ioos:station:TCOON:068:1,2019-09-01T21:24:00Z,27.2970,-97.4049,4.217,11111222 
TCOON,ioos:station:TCOON:068:1,2019-09-01T22:24:00Z,27.2970,-97.4049,4.224,11111222 
TCOON,ioos:station:TCOON:068:1,2019-09-01T23:24:00Z,27.2970,-97.4049,4.242,11111222 
TCOON,ioos:station:TCOON:068:1,2019-09-02T00:24:00Z,27.2970,-97.4049,4.242,11111222 
TCOON,ioos:station:TCOON:068:1,2019-09-02T01:24:00Z,27.2970,-97.4049,4.241,11111222 
TCOON,ioos:station:TCOON:068:1,2019-09-02T02:24:00Z,27.2970,-97.4049,4.239,11111222 
TCOON,ioos:station:TCOON:068:1,2019-09-02T03:24:00Z,27.2970,-97.4049,4.238,11111222 
TCOON,ioos:station:TCOON:068:1,2019-09-02T04:24:00Z,27.2970,-97.4049,4.24,11111222 
TCOON,ioos:station:TCOON:068:1,2019-09-02T05:24:00Z,27.2970,-97.4049,4.246,11111222 
TCOON,ioos:station:TCOON:068:1,2019-09-02T06:24:00Z,27.2970,-97.4049,4.255,11111222 
TCOON,ioos:station:TCOON:068:1,2019-09-02T07:24:00Z,27.2970,-97.4049,4.265,11111222 
TCOON,ioos:station:TCOON:068:1,2019-09-02T08:24:00Z,27.2970,-97.4049,4.272,11111222 
TCOON,ioos:station:TCOON:068:1,2019-09-02T09:24:00Z,27.2970,-97.4049,4.277,11111222 
TCOON,ioos:station:TCOON:068:1,2019-09-02T10:24:00Z,27.2970,-97.4049,4.277,11111222 
TCOON,ioos:station:TCOON:068:1,2019-09-02T11:24:00Z,27.2970,-97.4049,4.274,11111222 
TCOON,ioos:station:TCOON:068:1,2019-09-02T12:24:00Z,27.2970,-97.4049,4.271,11111222 
TCOON,ioos:station:TCOON:068:1,2019-09-02T15:24:00Z,27.2970,-97.4049,4.27,11111222 
TCOON,ioos:station:TCOON:068:1,2019-09-02T16:24:00Z,27.2970,-97.4049,4.262,11111222 
TCOON,ioos:station:TCOON:068:1,2019-09-02T17:24:00Z,27.2970,-97.4049,4.25,11111222 
TCOON,ioos:station:TCOON:068:1,2019-09-02T18:24:00Z,27.2970,-97.4049,4.236,11111222 
TCOON,ioos:station:TCOON:068:1,2019-09-02T19:24:00Z,27.2970,-97.4049,4.227,11111222 
TCOON,ioos:station:TCOON:068:1,2019-09-02T20:24:00Z,27.2970,-97.4049,4.228,11111222 
TCOON,ioos:station:TCOON:068:1,2019-09-02T21:24:00Z,27.2970,-97.4049,4.243,11111222 
TCOON,ioos:station:TCOON:068:1,2019-09-02T22:24:00Z,27.2970,-97.4049,4.249,11111222 
TCOON,ioos:station:TCOON:068:1,2019-09-02T23:24:00Z,27.2970,-97.4049,4.247,11111222 
TCOON,ioos:station:TCOON:068:1,2019-09-03T00:24:00Z,27.2970,-97.4049,4.253,11111222 
TCOON,ioos:station:TCOON:068:1,2019-09-03T01:24:00Z,27.2970,-97.4049,4.259,11111222 
TCOON,ioos:station:TCOON:068:1,2019-09-03T02:24:00Z,27.2970,-97.4049,4.265,11111222 
TCOON,ioos:station:TCOON:068:1,2019-09-03T03:24:00Z,27.2970,-97.4049,4.276,11111222 
TCOON,ioos:station:TCOON:068:1,2019-09-03T04:24:00Z,27.2970,-97.4049,4.285,11111222 
TCOON,ioos:station:TCOON:068:1,2019-09-03T05:24:00Z,27.2970,-97.4049,4.287,11111222 
TCOON,ioos:station:TCOON:068:1,2019-09-03T06:24:00Z,27.2970,-97.4049,4.288,11111222 
TCOON,ioos:station:TCOON:068:1,2019-09-03T07:24:00Z,27.2970,-97.4049,4.288,11111222 
TCOON,ioos:station:TCOON:068:1,2019-09-03T08:24:00Z,27.2970,-97.4049,4.298,11111222 
TCOON,ioos:station:TCOON:068:1,2019-09-03T09:24:00Z,27.2970,-97.4049,4.307,11111222 
TCOON,ioos:station:TCOON:068:1,2019-09-03T10:24:00Z,27.2970,-97.4049,4.315,11111222 
TCOON,ioos:station:TCOON:068:1,2019-09-03T11:24:00Z,27.2970,-97.4049,4.322,11111222 
TCOON,ioos:station:TCOON:068:1,2019-09-03T12:24:00Z,27.2970,-97.4049,4.324,11111222 
TCOON,ioos:station:TCOON:068:1,2019-09-03T13:24:00Z,27.2970,-97.4049,4.321,11111222 
TCOON,ioos:station:TCOON:068:1,2019-09-03T14:30:00Z,27.2970,-97.4049,4.308,11111222 
TCOON,ioos:station:TCOON:068:1,2019-09-03T15:24:00Z,27.2970,-97.4049,4.315,11111222 
TCOON,ioos:station:TCOON:068:1,2019-09-03T16:24:00Z,27.2970,-97.4049,4.325,11111222 
TCOON,ioos:station:TCOON:068:1,2019-09-03T17:30:00Z,27.2970,-97.4049,4.317,11111222 
TCOON,ioos:station:TCOON:068:1,2019-09-03T18:24:00Z,27.2970,-97.4049,4.31,11111222 
TCOON,ioos:station:TCOON:068:1,2019-09-03T19:24:00Z,27.2970,-97.4049,4.294,11111222 
TCOON,ioos:station:TCOON:068:1,2019-09-03T20:24:00Z,27.2970,-97.4049,4.288,11111222 
TCOON,ioos:station:TCOON:068:1,2019-09-03T21:24:00Z,27.2970,-97.4049,4.289,11111222 
TCOON,ioos:station:TCOON:068:1,2019-09-03T22:24:00Z,27.2970,-97.4049,4.284,11111222 
TCOON,ioos:station:TCOON:068:1,2019-09-03T23:24:00Z,27.2970,-97.4049,4.289,11111222 
TCOON,ioos:station:TCOON:068:1,2019-09-04T00:24:00Z,27.2970,-97.4049,4.301,11111222 
TCOON,ioos:station:TCOON:068:1,2019-09-04T01:24:00Z,27.2970,-97.4049,4.318,11111222 
TCOON,ioos:station:TCOON:068:1,2019-09-04T02:24:00Z,27.2970,-97.4049,4.338,11111222 
TCOON,ioos:station:TCOON:068:1,2019-09-04T03:24:00Z,27.2970,-97.4049,4.347,11111222 
TCOON,ioos:station:TCOON:068:1,2019-09-04T04:24:00Z,27.2970,-97.4049,4.342,11111222 
TCOON,ioos:station:TCOON:068:1,2019-09-04T05:24:00Z,27.2970,-97.4049,4.337,11111222 
TCOON,ioos:station:TCOON:068:1,2019-09-04T06:24:00Z,27.2970,-97.4049,4.335,11111222 
TCOON,ioos:station:TCOON:068:1,2019-09-04T07:24:00Z,27.2970,-97.4049,4.336,11111222 
TCOON,ioos:station:TCOON:068:1,2019-09-04T08:24:00Z,27.2970,-97.4049,4.337,11111222 
TCOON,ioos:station:TCOON:068:1,2019-09-04T09:24:00Z,27.2970,-97.4049,4.332,11111222 
TCOON,ioos:station:TCOON:068:1,2019-09-04T10:24:00Z,27.2970,-97.4049,4.345,11111222 
TCOON,ioos:station:TCOON:068:1,2019-09-04T11:24:00Z,27.2970,-97.4049,4.366,11111222 
TCOON,ioos:station:TCOON:068:1,2019-09-04T12:24:00Z,27.2970,-97.4049,4.37,11111222 
TCOON,ioos:station:TCOON:068:1,2019-09-04T13:24:00Z,27.2970,-97.4049,4.371,11111222 
TCOON,ioos:station:TCOON:068:1,2019-09-04T14:30:00Z,27.2970,-97.4049,4.38,11111222 
TCOON,ioos:station:TCOON:068:1,2019-09-04T15:24:00Z,27.2970,-97.4049,4.382,11111222 
TCOON,ioos:station:TCOON:068:1,2019-09-04T16:24:00Z,27.2970,-97.4049,4.366,11111222 
TCOON,ioos:station:TCOON:068:1,2019-09-04T17:30:00Z,27.2970,-97.4049,4.348,11111222 
TCOON,ioos:station:TCOON:068:1,2019-09-04T18:24:00Z,27.2970,-97.4049,4.326,11111222 
TCOON,ioos:station:TCOON:068:1,2019-09-04T19:24:00Z,27.2970,-97.4049,4.305,11111222 
TCOON,ioos:station:TCOON:068:1,2019-09-04T20:24:00Z,27.2970,-97.4049,4.303,11111222 
TCOON,ioos:station:TCOON:068:1,2019-09-04T21:24:00Z,27.2970,-97.4049,4.334,11111222 
TCOON,ioos:station:TCOON:068:1,2019-09-04T22:24:00Z,27.2970,-97.4049,4.342,11111222 
TCOON,ioos:station:TCOON:068:1,2019-09-04T23:24:00Z,27.2970,-97.4049,4.37,11111222 
TCOON,ioos:station:TCOON:068:1,2019-09-05T00:24:00Z,27.2970,-97.4049,4.398,11111222 
TCOON,ioos:station:TCOON:068:1,2019-09-05T01:24:00Z,27.2970,-97.4049,4.403,11111222 
TCOON,ioos:station:TCOON:068:1,2019-09-05T02:24:00Z,27.2970,-97.4049,4.422,11111222 
TCOON,ioos:station:TCOON:068:1,2019-09-05T03:24:00Z,27.2970,-97.4049,4.426,11111222 
TCOON,ioos:station:TCOON:068:1,2019-09-05T04:24:00Z,27.2970,-97.4049,4.444,11111222 
TCOON,ioos:station:TCOON:068:1,2019-09-05T05:24:00Z,27.2970,-97.4049,4.451,11111222 
TCOON,ioos:station:TCOON:068:1,2019-09-05T06:24:00Z,27.2970,-97.4049,4.469,11111222 
TCOON,ioos:station:TCOON:068:1,2019-09-05T07:24:00Z,27.2970,-97.4049,4.475,11111222 
TCOON,ioos:station:TCOON:068:1,2019-09-05T08:24:00Z,27.2970,-97.4049,4.459,11111222 
TCOON,ioos:station:TCOON:068:1,2019-09-05T09:24:00Z,27.2970,-97.4049,4.491,11111222 
TCOON,ioos:station:TCOON:068:1,2019-09-05T10:24:00Z,27.2970,-97.4049,4.502,11111222 
TCOON,ioos:station:TCOON:068:1,2019-09-05T11:24:00Z,27.2970,-97.4049,4.505,11111222 
TCOON,ioos:station:TCOON:068:1,2019-09-05T12:24:00Z,27.2970,-97.4049,4.507,11111222 
TCOON,ioos:station:TCOON:068:1,2019-09-05T13:24:00Z,27.2970,-97.4049,4.508,11111222 
TCOON,ioos:station:TCOON:068:1,2019-09-05T14:24:00Z,27.2970,-97.4049,4.508,11111222 
TCOON,ioos:station:TCOON:068:1,2019-09-05T15:24:00Z,27.2970,-97.4049,4.497,11111222 
TCOON,ioos:station:TCOON:068:1,2019-09-05T16:24:00Z,27.2970,-97.4049,4.493,11111222 
TCOON,ioos:station:TCOON:068:1,2019-09-05T17:24:00Z,27.2970,-97.4049,4.485,11111222 
TCOON,ioos:station:TCOON:068:1,2019-09-05T18:24:00Z,27.2970,-97.4049,4.486,11111222 
TCOON,ioos:station:TCOON:068:1,2019-09-05T19:24:00Z,27.2970,-97.4049,4.485,11111222 
TCOON,ioos:station:TCOON:068:1,2019-09-05T20:24:00Z,27.2970,-97.4049,4.495,11111222 
TCOON,ioos:station:TCOON:068:1,2019-09-05T21:24:00Z,27.2970,-97.4049,4.516,11111222 
TCOON,ioos:station:TCOON:068:1,2019-09-05T22:24:00Z,27.2970,-97.4049,4.527,11111222 
TCOON,ioos:station:TCOON:068:1,2019-09-05T23:24:00Z,27.2970,-97.4049,4.519,11111222 
TCOON,ioos:station:TCOON:068:1,2019-09-06T00:24:00Z,27.2970,-97.4049,4.51,11111222 
TCOON,ioos:station:TCOON:068:1,2019-09-06T01:24:00Z,27.2970,-97.4049,4.501,11111222 
TCOON,ioos:station:TCOON:068:1,2019-09-06T02:24:00Z,27.2970,-97.4049,4.506,11111222 
TCOON,ioos:station:TCOON:068:1,2019-09-06T03:24:00Z,27.2970,-97.4049,4.513,11111222 
TCOON,ioos:station:TCOON:068:1,2019-09-06T04:24:00Z,27.2970,-97.4049,4.513,11111222 
TCOON,ioos:station:TCOON:068:1,2019-09-06T06:42:00Z,27.2970,-97.4049,4.503,11111222 
TCOON,ioos:station:TCOON:068:1,2019-09-06T07:36:00Z,27.2970,-97.4049,4.502,11111222 
TCOON,ioos:station:TCOON:068:1,2019-09-06T08:24:00Z,27.2970,-97.4049,4.498,11111222 
TCOON,ioos:station:TCOON:068:1,2019-09-06T09:24:00Z,27.2970,-97.4049,4.499,11111222 
TCOON,ioos:station:TCOON:068:1,2019-09-06T10:24:00Z,27.2970,-97.4049,4.5,11111222 
TCOON,ioos:station:TCOON:068:1,2019-09-06T11:24:00Z,27.2970,-97.4049,4.442,11111222 
TCOON,ioos:station:TCOON:068:1,2019-09-06T12:24:00Z,27.2970,-97.4049,4.494,11111222 
TCOON,ioos:station:TCOON:068:1,2019-09-06T13:24:00Z,27.2970,-97.4049,4.488,11111222 
TCOON,ioos:station:TCOON:068:1,2019-09-06T14:24:00Z,27.2970,-97.4049,4.482,11111222 
TCOON,ioos:station:TCOON:068:1,2019-09-06T15:24:00Z,27.2970,-97.4049,4.483,11111222 
TCOON,ioos:station:TCOON:068:1,2019-09-06T16:24:00Z,27.2970,-97.4049,4.476,11111222 
TCOON,ioos:station:TCOON:068:1,2019-09-06T17:24:00Z,27.2970,-97.4049,4.467,11111222 
TCOON,ioos:station:TCOON:068:1,2019-09-06T18:24:00Z,27.2970,-97.4049,4.459,11111222 
TCOON,ioos:station:TCOON:068:1,2019-09-06T19:24:00Z,27.2970,-97.4049,4.453,11111222 
TCOON,ioos:station:TCOON:068:1,2019-09-06T20:24:00Z,27.2970,-97.4049,4.453,11111222 
TCOON,ioos:station:TCOON:068:1,2019-09-06T21:24:00Z,27.2970,-97.4049,4.455,11111222 
TCOON,ioos:station:TCOON:068:1,2019-09-06T22:24:00Z,27.2970,-97.4049,4.455,11111222 
TCOON,ioos:station:TCOON:068:1,2019-09-06T23:24:00Z,27.2970,-97.4049,4.451,11111222 
TCOON,ioos:station:TCOON:068:1,2019-09-07T00:24:00Z,27.2970,-97.4049,4.449,11111222 
TCOON,ioos:station:TCOON:068:1,2019-09-07T01:24:00Z,27.2970,-97.4049,4.45,11111222 
TCOON,ioos:station:TCOON:068:1,2019-09-07T02:24:00Z,27.2970,-97.4049,4.454,11111222 
TCOON,ioos:station:TCOON:068:1,2019-09-07T03:24:00Z,27.2970,-97.4049,4.457,11111222 
TCOON,ioos:station:TCOON:068:1,2019-09-07T04:24:00Z,27.2970,-97.4049,4.457,11111222 
TCOON,ioos:station:TCOON:068:1,2019-09-07T05:24:00Z,27.2970,-97.4049,4.438,11111222 
TCOON,ioos:station:TCOON:068:1,2019-09-07T06:24:00Z,27.2970,-97.4049,4.454,11111222 
TCOON,ioos:station:TCOON:068:1,2019-09-07T07:24:00Z,27.2970,-97.4049,4.448,11111222 
TCOON,ioos:station:TCOON:068:1,2019-09-07T08:24:00Z,27.2970,-97.4049,4.456,11111222 
TCOON,ioos:station:TCOON:068:1,2019-09-07T09:24:00Z,27.2970,-97.4049,4.452,11111222 
TCOON,ioos:station:TCOON:068:1,2019-09-07T10:24:00Z,27.2970,-97.4049,4.451,11111222 
TCOON,ioos:station:TCOON:068:1,2019-09-07T11:24:00Z,27.2970,-97.4049,4.444,11111222 
TCOON,ioos:station:TCOON:068:1,2019-09-07T12:24:00Z,27.2970,-97.4049,4.437,11111222 
TCOON,ioos:station:TCOON:068:1,2019-09-07T13:24:00Z,27.2970,-97.4049,4.441,11111222 
TCOON,ioos:station:TCOON:068:1,2019-09-07T14:24:00Z,27.2970,-97.4049,4.43,11111222 
TCOON,ioos:station:TCOON:068:1,2019-09-07T15:24:00Z,27.2970,-97.4049,4.422,11111222 
TCOON,ioos:station:TCOON:068:1,2019-09-07T16:24:00Z,27.2970,-97.4049,4.417,11111222 
TCOON,ioos:station:TCOON:068:1,2019-09-07T17:24:00Z,27.2970,-97.4049,4.417,11111222 
TCOON,ioos:station:TCOON:068:1,2019-09-07T18:24:00Z,27.2970,-97.4049,4.414,11111222 
TCOON,ioos:station:TCOON:068:1,2019-09-07T19:24:00Z,27.2970,-97.4049,4.402,11111222 
TCOON,ioos:station:TCOON:068:1,2019-09-07T20:24:00Z,27.2970,-97.4049,4.394,11111222 
TCOON,ioos:station:TCOON:068:1,2019-09-07T21:24:00Z,27.2970,-97.4049,4.393,11111222 
TCOON,ioos:station:TCOON:068:1,2019-09-07T22:24:00Z,27.2970,-97.4049,4.391,11111222 
TCOON,ioos:station:TCOON:068:1,2019-09-07T23:24:00Z,27.2970,-97.4049,4.385,11111222 
TCOON,ioos:station:TCOON:068:1,2019-09-08T00:24:00Z,27.2970,-97.4049,4.383,11111222 
TCOON,ioos:station:TCOON:068:1,2019-09-08T01:24:00Z,27.2970,-97.4049,4.385,11111222 
TCOON,ioos:station:TCOON:068:1,2019-09-08T02:24:00Z,27.2970,-97.4049,4.39,11111222 
TCOON,ioos:station:TCOON:068:1,2019-09-08T03:24:00Z,27.2970,-97.4049,4.401,11111222 
TCOON,ioos:station:TCOON:068:1,2019-09-08T04:24:00Z,27.2970,-97.4049,4.404,11111222 
TCOON,ioos:station:TCOON:068:1,2019-09-08T05:24:00Z,27.2970,-97.4049,4.401,11111222 
TCOON,ioos:station:TCOON:068:1,2019-09-08T06:24:00Z,27.2970,-97.4049,4.401,11111222 
TCOON,ioos:station:TCOON:068:1,2019-09-08T07:24:00Z,27.2970,-97.4049,4.405,11111222 
TCOON,ioos:station:TCOON:068:1,2019-09-08T08:24:00Z,27.2970,-97.4049,4.403,11111222 
TCOON,ioos:station:TCOON:068:1,2019-09-08T09:24:00Z,27.2970,-97.4049,4.398,11111222 
TCOON,ioos:station:TCOON:068:1,2019-09-08T10:24:00Z,27.2970,-97.4049,4.39,11111222 
TCOON,ioos:station:TCOON:068:1,2019-09-08T11:24:00Z,27.2970,-97.4049,4.388,11111222 
TCOON,ioos:station:TCOON:068:1,2019-09-08T12:24:00Z,27.2970,-97.4049,4.382,11111222 
TCOON,ioos:station:TCOON:068:1,2019-09-08T13:24:00Z,27.2970,-97.4049,4.383,11111222 
TCOON,ioos:station:TCOON:068:1,2019-09-08T14:24:00Z,27.2970,-97.4049,4.382,11111222 
TCOON,ioos:station:TCOON:068:1,2019-09-08T15:24:00Z,27.2970,-97.4049,4.375,11111222 
TCOON,ioos:station:TCOON:068:1,2019-09-08T16:24:00Z,27.2970,-97.4049,4.364,11111222 
TCOON,ioos:station:TCOON:068:1,2019-09-08T17:24:00Z,27.2970,-97.4049,4.356,11111222 
TCOON,ioos:station:TCOON:068:1,2019-09-08T18:24:00Z,27.2970,-97.4049,4.349,11111222 
TCOON,ioos:station:TCOON:068:1,2019-09-08T19:24:00Z,27.2970,-97.4049,4.347,11111222 
TCOON,ioos:station:TCOON:068:1,2019-09-08T20:24:00Z,27.2970,-97.4049,4.347,11111222 
TCOON,ioos:station:TCOON:068:1,2019-09-08T21:24:00Z,27.2970,-97.4049,4.34,11111222 
TCOON,ioos:station:TCOON:068:1,2019-09-08T22:24:00Z,27.2970,-97.4049,4.33,11111222 
TCOON,ioos:station:TCOON:068:1,2019-09-08T23:24:00Z,27.2970,-97.4049,4.327,11111222 
TCOON,ioos:station:TCOON:068:1,2019-09-09T00:24:00Z,27.2970,-97.4049,4.327,11111222 
TCOON,ioos:station:TCOON:068:1,2019-09-09T01:24:00Z,27.2970,-97.4049,4.331,11111222 
TCOON,ioos:station:TCOON:068:1,2019-09-09T02:24:00Z,27.2970,-97.4049,4.347,11111222 
TCOON,ioos:station:TCOON:068:1,2019-09-09T03:24:00Z,27.2970,-97.4049,4.356,11111222 
TCOON,ioos:station:TCOON:068:1,2019-09-09T04:24:00Z,27.2970,-97.4049,4.355,11111222 
TCOON,ioos:station:TCOON:068:1,2019-09-09T05:24:00Z,27.2970,-97.4049,4.346,11111222 
TCOON,ioos:station:TCOON:068:1,2019-09-09T06:24:00Z,27.2970,-97.4049,4.341,11111222 
TCOON,ioos:station:TCOON:068:1,2019-09-09T07:24:00Z,27.2970,-97.4049,4.337,11111222 
TCOON,ioos:station:TCOON:068:1,2019-09-09T08:24:00Z,27.2970,-97.4049,4.344,11111222 
TCOON,ioos:station:TCOON:068:1,2019-09-09T09:24:00Z,27.2970,-97.4049,4.353,11111222 
TCOON,ioos:station:TCOON:068:1,2019-09-09T10:24:00Z,27.2970,-97.4049,4.344,11111222 
TCOON,ioos:station:TCOON:068:1,2019-09-09T11:24:00Z,27.2970,-97.4049,4.34,11111222 
TCOON,ioos:station:TCOON:068:1,2019-09-09T12:24:00Z,27.2970,-97.4049,4.338,11111222 
TCOON,ioos:station:TCOON:068:1,2019-09-09T13:24:00Z,27.2970,-97.4049,4.335,11111222 
TCOON,ioos:station:TCOON:068:1,2019-09-09T14:36:00Z,27.2970,-97.4049,4.337,11111222 
TCOON,ioos:station:TCOON:068:1,2019-09-09T15:24:00Z,27.2970,-97.4049,4.324,11111222 
TCOON,ioos:station:TCOON:068:1,2019-09-09T16:24:00Z,27.2970,-97.4049,4.32,11111222 
TCOON,ioos:station:TCOON:068:1,2019-09-09T17:24:00Z,27.2970,-97.4049,4.311,11111222 
TCOON,ioos:station:TCOON:068:1,2019-09-09T21:24:00Z,27.2970,-97.4049,4.298,11111222 
TCOON,ioos:station:TCOON:068:1,2019-09-09T22:24:00Z,27.2970,-97.4049,4.284,11111222 
TCOON,ioos:station:TCOON:068:1,2019-09-09T23:24:00Z,27.2970,-97.4049,4.285,11111222 
TCOON,ioos:station:TCOON:068:1,2019-09-10T00:24:00Z,27.2970,-97.4049,4.289,11111222 
TCOON,ioos:station:TCOON:068:1,2019-09-10T01:24:00Z,27.2970,-97.4049,4.288,11111222 
TCOON,ioos:station:TCOON:068:1,2019-09-10T02:24:00Z,27.2970,-97.4049,4.312,11111222 
TCOON,ioos:station:TCOON:068:1,2019-09-10T03:24:00Z,27.2970,-97.4049,4.315,11111222 
TCOON,ioos:station:TCOON:068:1,2019-09-10T04:24:00Z,27.2970,-97.4049,4.322,11111222 
TCOON,ioos:station:TCOON:068:1,2019-09-10T05:36:00Z,27.2970,-97.4049,4.319,11111222 
TCOON,ioos:station:TCOON:068:1,2019-09-10T06:24:00Z,27.2970,-97.4049,4.312,11111222 
TCOON,ioos:station:TCOON:068:1,2019-09-10T07:24:00Z,27.2970,-97.4049,4.306,11111222 
TCOON,ioos:station:TCOON:068:1,2019-09-10T08:24:00Z,27.2970,-97.4049,4.31,11111222 
TCOON,ioos:station:TCOON:068:1,2019-09-10T09:24:00Z,27.2970,-97.4049,4.304,11111222 
TCOON,ioos:station:TCOON:068:1,2019-09-10T10:24:00Z,27.2970,-97.4049,4.296,11111222 
TCOON,ioos:station:TCOON:068:1,2019-09-10T11:24:00Z,27.2970,-97.4049,4.309,11111222 
TCOON,ioos:station:TCOON:068:1,2019-09-10T12:24:00Z,27.2970,-97.4049,4.306,11111222 
TCOON,ioos:station:TCOON:068:1,2019-09-10T13:24:00Z,27.2970,-97.4049,4.303,11111222 
TCOON,ioos:station:TCOON:068:1,2019-09-10T14:24:00Z,27.2970,-97.4049,4.308,11111222 
TCOON,ioos:station:TCOON:068:1,2019-09-10T15:24:00Z,27.2970,-97.4049,4.306,11111222 
TCOON,ioos:station:TCOON:068:1,2019-09-10T16:24:00Z,27.2970,-97.4049,4.291,11111222 
TCOON,ioos:station:TCOON:068:1,2019-09-10T17:24:00Z,27.2970,-97.4049,4.282,11111222 
TCOON,ioos:station:TCOON:068:1,2019-09-10T18:24:00Z,27.2970,-97.4049,4.28,11111222 
TCOON,ioos:station:TCOON:068:1,2019-09-10T19:24:00Z,27.2970,-97.4049,4.296,11111222 
TCOON,ioos:station:TCOON:068:1,2019-09-10T20:24:00Z,27.2970,-97.4049,4.29,11111222 
TCOON,ioos:station:TCOON:068:1,2019-09-10T21:24:00Z,27.2970,-97.4049,4.296,11111222 
TCOON,ioos:station:TCOON:068:1,2019-09-10T22:24:00Z,27.2970,-97.4049,4.325,11111222 
TCOON,ioos:station:TCOON:068:1,2019-09-10T23:24:00Z,27.2970,-97.4049,4.307,11111222 
TCOON,ioos:station:TCOON:068:1,2019-09-11T00:24:00Z,27.2970,-97.4049,4.283,11111222 
TCOON,ioos:station:TCOON:068:1,2019-09-11T01:24:00Z,27.2970,-97.4049,4.265,11111222 
TCOON,ioos:station:TCOON:068:1,2019-09-11T02:24:00Z,27.2970,-97.4049,4.264,11111222 
TCOON,ioos:station:TCOON:068:1,2019-09-11T03:24:00Z,27.2970,-97.4049,4.276,11111222 
TCOON,ioos:station:TCOON:068:1,2019-09-11T04:24:00Z,27.2970,-97.4049,4.295,11111222 
TCOON,ioos:station:TCOON:068:1,2019-09-11T05:36:00Z,27.2970,-97.4049,4.301,11111222 
TCOON,ioos:station:TCOON:068:1,2019-09-11T06:24:00Z,27.2970,-97.4049,4.304,11111222 
TCOON,ioos:station:TCOON:068:1,2019-09-11T07:24:00Z,27.2970,-97.4049,4.308,11111222 
TCOON,ioos:station:TCOON:068:1,2019-09-11T08:24:00Z,27.2970,-97.4049,4.31,11111222 
TCOON,ioos:station:TCOON:068:1,2019-09-11T09:24:00Z,27.2970,-97.4049,4.302,11111222 
TCOON,ioos:station:TCOON:068:1,2019-09-11T10:24:00Z,27.2970,-97.4049,4.296,11111222 
TCOON,ioos:station:TCOON:068:1,2019-09-11T11:24:00Z,27.2970,-97.4049,4.294,11111222 
TCOON,ioos:station:TCOON:068:1,2019-09-11T12:24:00Z,27.2970,-97.4049,4.291,11111222 
TCOON,ioos:station:TCOON:068:1,2019-09-11T13:24:00Z,27.2970,-97.4049,4.306,11111222 
TCOON,ioos:station:TCOON:068:1,2019-09-11T14:24:00Z,27.2970,-97.4049,4.31,11111222 
TCOON,ioos:station:TCOON:068:1,2019-09-11T15:30:00Z,27.2970,-97.4049,4.305,11111222 
TCOON,ioos:station:TCOON:068:1,2019-09-11T16:24:00Z,27.2970,-97.4049,4.297,11111222 
TCOON,ioos:station:TCOON:068:1,2019-09-11T17:24:00Z,27.2970,-97.4049,4.291,11111222 
TCOON,ioos:station:TCOON:068:1,2019-09-11T18:24:00Z,27.2970,-97.4049,4.291,11111222 
TCOON,ioos:station:TCOON:068:1,2019-09-11T19:24:00Z,27.2970,-97.4049,4.281,11111222 
TCOON,ioos:station:TCOON:068:1,2019-09-11T20:24:00Z,27.2970,-97.4049,4.284,11111222 
TCOON,ioos:station:TCOON:068:1,2019-09-11T21:24:00Z,27.2970,-97.4049,4.29,11111222 
TCOON,ioos:station:TCOON:068:1,2019-09-11T22:24:00Z,27.2970,-97.4049,4.29,11111222 
TCOON,ioos:station:TCOON:068:1,2019-09-11T23:24:00Z,27.2970,-97.4049,4.3,11111222 
TCOON,ioos:station:TCOON:068:1,2019-09-12T00:24:00Z,27.2970,-97.4049,4.298,11111222 
TCOON,ioos:station:TCOON:068:1,2019-09-12T01:24:00Z,27.2970,-97.4049,4.306,11111222 
TCOON,ioos:station:TCOON:068:1,2019-09-12T02:24:00Z,27.2970,-97.4049,4.31,11111222 
TCOON,ioos:station:TCOON:068:1,2019-09-12T03:24:00Z,27.2970,-97.4049,4.313,11111222 
TCOON,ioos:station:TCOON:068:1,2019-09-12T04:24:00Z,27.2970,-97.4049,4.311,11111222 
TCOON,ioos:station:TCOON:068:1,2019-09-12T05:24:00Z,27.2970,-97.4049,4.308,11111222 
TCOON,ioos:station:TCOON:068:1,2019-09-12T06:24:00Z,27.2970,-97.4049,4.306,11111222 
TCOON,ioos:station:TCOON:068:1,2019-09-12T07:24:00Z,27.2970,-97.4049,4.303,11111222 
TCOON,ioos:station:TCOON:068:1,2019-09-12T08:24:00Z,27.2970,-97.4049,4.307,11111222 
TCOON,ioos:station:TCOON:068:1,2019-09-12T09:24:00Z,27.2970,-97.4049,4.309,11111222 
TCOON,ioos:station:TCOON:068:1,2019-09-12T10:24:00Z,27.2970,-97.4049,4.318,11111222 
TCOON,ioos:station:TCOON:068:1,2019-09-12T11:24:00Z,27.2970,-97.4049,4.331,11111222 
TCOON,ioos:station:TCOON:068:1,2019-09-12T12:24:00Z,27.2970,-97.4049,4.316,11111222 
TCOON,ioos:station:TCOON:068:1,2019-09-12T13:24:00Z,27.2970,-97.4049,4.312,11111222 
TCOON,ioos:station:TCOON:068:1,2019-09-12T14:24:00Z,27.2970,-97.4049,4.317,11111222 
TCOON,ioos:station:TCOON:068:1,2019-09-12T15:24:00Z,27.2970,-97.4049,4.321,11111222 
TCOON,ioos:station:TCOON:068:1,2019-09-13T19:24:00Z,27.2970,-97.4049,4.329,11111222 
TCOON,ioos:station:TCOON:068:1,2019-09-13T20:24:00Z,27.2970,-97.4049,4.336,11111222 
TCOON,ioos:station:TCOON:068:1,2019-09-13T21:24:00Z,27.2970,-97.4049,4.339,11111222 
TCOON,ioos:station:TCOON:068:1,2019-09-13T22:24:00Z,27.2970,-97.4049,4.355,11111222 
TCOON,ioos:station:TCOON:068:1,2019-09-13T23:24:00Z,27.2970,-97.4049,4.368,11111222 
TCOON,ioos:station:TCOON:068:1,2019-09-14T00:24:00Z,27.2970,-97.4049,4.366,11111222 
TCOON,ioos:station:TCOON:068:1,2019-09-14T01:24:00Z,27.2970,-97.4049,4.371,11111222 